Rochester/St. Mary\'s Hospita, MN

3:39 PM CST on December 09, 2019 (GMT -0600)
Rochester/St. Mary\'s Hospita

Weather History for K9MN - October, 2019

Change the Weather History Date:

Monday, October 7, 2019

  Actual Average (WUND) Record (WUND)
Temperature  
Mean Temperature 56 °F -  
Max Temperature 66 °F - - (-1)
Min Temperature 46 °F - - (-1)
Degree Days  
Heating Degree Days 9    
Growing Degree Days 6 (Base 50)    
Moisture  
Dew Point 38 °F    
Average Humidity 53    
Maximum Humidity 76    
Minimum Humidity 31    
Precipitation  
Precipitation 0.00 in - - ()
Sea Level Pressure  
Sea Level Pressure 30.14 in    
Wind  
Wind Speed 9 mph (WSW)    
Max Wind Speed 15 mph    
Max Gust Speed 21 mph    
Visibility 10 miles    
Events      
Averages and records for this station are not official NWS values.
T = Trace of Precipitation, MM = Missing Value Source: NWS Daily Summary

Daily Weather History Graph

Daily Weather History Graph

Search for Another Location

Airport or City:

Astronomy

Oct. 07, 2019 Rise Set
Actual Time 7:14 AM CDT 6:40 PM CDT
Civil Twilight 6:45 AM CDT 7:09 PM CDT
Nautical Twilight 6:12 AM CDT 7:42 PM CDT
Astronomical Twilight 5:38 AM CDT 8:16 PM CDT
Moon 4:16 PM CDT (10/7) 12:52 AM CDT (10/7)
Length of Visible Light 12h 23m
Length of Day
11h 25m
Waxing Gibbous, 69% of the Moon is Illuminated
Oct 7
Waxing Gibbous
Oct 13
Full
Oct 21
Last Quarter
Oct 27
New
Nov 4
First Quarter

Hourly Weather History & Observations

Time (CDT) Temp. Windchill Dew Point Humidity Pressure Visibility Wind Dir Wind Speed Gust Speed Precip Events Conditions
12:15 AM 54.0 °F - 39.2 °F 57% 30.08 in 10.0 mi WSW 10.4 mph 17.3 mph N/A   Overcast
12:35 AM 54.3 °F - 38.8 °F 56% 30.08 in 10.0 mi WSW 11.5 mph 17.3 mph N/A   Overcast
12:55 AM 54.5 °F - 38.8 °F 56% 30.07 in 10.0 mi WSW 10.4 mph 18.4 mph N/A   Overcast
12:56 AM 54.5 °F - 38.8 °F 56% 30.07 in 10.0 mi WSW 11.5 mph 18.4 mph N/A   Overcast
1:15 AM 54.5 °F - 39.2 °F 56% 30.07 in 10.0 mi WSW 15.0 mph 20.7 mph N/A   Overcast
1:16 AM 54.5 °F - 39.2 °F 56% 30.07 in 10.0 mi WSW 15.0 mph 20.7 mph N/A   Overcast
1:35 AM 54.5 °F - 39.2 °F 56% 30.08 in 10.0 mi WSW 11.5 mph 20.7 mph N/A   Overcast
1:55 AM 54.5 °F - 39.2 °F 56% 30.08 in 10.0 mi WSW 12.7 mph 18.4 mph N/A   Overcast
2:16 AM 54.0 °F - 39.2 °F 57% 30.08 in 10.0 mi West 8.1 mph 18.4 mph N/A   Overcast
2:35 AM 54.0 °F - 39.2 °F 57% 30.08 in 10.0 mi WSW 11.5 mph 17.3 mph N/A   Mostly Cloudy
2:36 AM 54.0 °F - 39.2 °F 57% 30.08 in 10.0 mi WSW 11.5 mph 17.3 mph N/A   Mostly Cloudy
2:55 AM 53.2 °F - 39.2 °F 59% 30.09 in 10.0 mi West 10.4 mph 18.4 mph N/A   Scattered Clouds
3:15 AM 52.9 °F - 38.8 °F 59% 30.09 in 10.0 mi West 11.5 mph 20.7 mph N/A   Clear
3:35 AM 52.2 °F - 39.2 °F 61% 30.09 in 10.0 mi West 11.5 mph 19.6 mph N/A   Clear
3:36 AM 52.0 °F - 39.2 °F 62% 30.09 in 10.0 mi WSW 11.5 mph 19.6 mph N/A   Clear
3:55 AM 51.3 °F - 39.2 °F 63% 30.10 in 10.0 mi WSW 10.4 mph 17.3 mph N/A   Clear
3:56 AM 51.3 °F - 39.2 °F 63% 30.10 in 10.0 mi West 11.5 mph 17.3 mph N/A   Clear
4:15 AM 50.7 °F - 39.0 °F 64% 30.11 in 10.0 mi West 9.2 mph - N/A   Clear
4:35 AM 50.0 °F - 39.0 °F 66% 30.11 in 10.0 mi West 8.1 mph 17.3 mph N/A   Clear
4:55 AM 49.6 °F - 38.8 °F 66% 30.12 in 10.0 mi West 8.1 mph - N/A   Clear
4:56 AM 49.6 °F - 38.8 °F 66% 30.12 in 10.0 mi West 6.9 mph - N/A   Clear
5:15 AM 49.1 °F - 39.2 °F 69% 30.12 in 10.0 mi West 6.9 mph - N/A   Clear
5:16 AM 49.1 °F - 39.2 °F 69% 30.12 in 10.0 mi West 6.9 mph - N/A   Clear
5:35 AM 48.2 °F - 39.2 °F 71% 30.13 in 10.0 mi West 9.2 mph - N/A   Clear
5:55 AM 47.7 °F - 39.2 °F 72% 30.14 in 10.0 mi West 9.2 mph - N/A   Clear
6:15 AM 47.3 °F - 39.2 °F 73% 30.14 in 10.0 mi West 8.1 mph - N/A   Clear
6:16 AM 47.3 °F - 39.2 °F 73% 30.14 in 10.0 mi West 8.1 mph - N/A   Clear
6:35 AM 46.9 °F - 39.2 °F 74% 30.15 in 10.0 mi WSW 5.8 mph - N/A   Clear
6:36 AM 46.9 °F - 39.2 °F 74% 30.15 in 10.0 mi West 5.8 mph - N/A   Clear
6:55 AM 46.6 °F - 39.2 °F 75% 30.15 in 10.0 mi West 6.9 mph - N/A   Clear
7:15 AM 46.4 °F 45.2 °F 39.0 °F 75% 30.15 in 10.0 mi West 3.5 mph - N/A   Clear
7:35 AM 46.2 °F 45.0 °F 39.2 °F 76% 30.16 in 10.0 mi West 3.5 mph - N/A   Clear
7:36 AM 46.2 °F 44.1 °F 39.2 °F 76% 30.16 in 10.0 mi WSW 4.6 mph - N/A   Clear
7:55 AM 46.4 °F 44.3 °F 39.2 °F 76% 30.16 in 10.0 mi West 4.6 mph - N/A   Clear
7:56 AM 46.4 °F 43.5 °F 39.2 °F 76% 30.16 in 10.0 mi West 5.8 mph - N/A   Clear
8:15 AM 47.3 °F - 39.2 °F 73% 30.17 in 10.0 mi WSW 6.9 mph - N/A   Clear
8:35 AM 48.2 °F - 39.4 °F 72% 30.17 in 10.0 mi West 3.5 mph - N/A   Clear
8:55 AM 49.1 °F - 39.4 °F 69% 30.18 in 10.0 mi West 6.9 mph - N/A   Clear
8:56 AM 49.1 °F - 39.4 °F 69% 30.18 in 10.0 mi West 5.8 mph - N/A   Clear
9:15 AM 50.2 °F - 40.1 °F 68% 30.19 in 10.0 mi West 4.6 mph - N/A   Clear
9:16 AM 50.2 °F - 40.1 °F 68% 30.19 in 10.0 mi West 4.6 mph - N/A   Clear
9:35 AM 52.3 °F - 39.9 °F 63% 30.19 in 10.0 mi West 4.6 mph - N/A   Clear
9:55 AM 53.6 °F - 39.4 °F 59% 30.19 in 10.0 mi West 5.8 mph - N/A   Clear
10:15 AM 55.0 °F - 39.4 °F 56% 30.19 in 10.0 mi WSW 5.8 mph - N/A   Clear
10:16 AM 55.4 °F - 39.4 °F 55% 30.19 in 10.0 mi West 6.9 mph - N/A   Clear
10:35 AM 56.5 °F - 38.7 °F 51% 30.20 in 10.0 mi West 8.1 mph - N/A   Clear
10:36 AM 56.5 °F - 38.7 °F 51% 30.19 in 10.0 mi West 8.1 mph - N/A   Clear
10:55 AM 57.9 °F - 38.3 °F 48% 30.19 in 10.0 mi West 9.2 mph - N/A   Clear
11:15 AM 59.4 °F - 38.3 °F 46% 30.19 in 10.0 mi West 8.1 mph - N/A   Clear
11:35 AM 60.1 °F - 36.0 °F 41% 30.19 in 10.0 mi West 11.5 mph 16.1 mph N/A   Clear
11:36 AM 60.1 °F - 36.0 °F 41% 30.19 in 10.0 mi West 11.5 mph 16.1 mph N/A   Clear
11:55 AM 61.3 °F - 36.3 °F 39% 30.19 in 10.0 mi West 5.8 mph - N/A   Clear
11:56 AM 61.5 °F - 36.5 °F 39% 30.19 in 10.0 mi West 6.9 mph - N/A   Clear
12:15 PM 61.7 °F - 34.7 °F 36% 30.19 in 10.0 mi WNW 6.9 mph 17.3 mph N/A   Clear
12:35 PM 62.1 °F - 34.2 °F 35% 30.18 in 10.0 mi West 15.0 mph 20.7 mph N/A   Clear
12:55 PM 62.2 °F - 34.5 °F 36% 30.18 in 10.0 mi West 11.5 mph 17.3 mph N/A   Clear
12:56 PM 62.4 °F - 34.7 °F 36% 30.18 in 10.0 mi West 11.5 mph 17.3 mph N/A   Clear
1:15 PM 63.0 °F - 34.9 °F 35% 30.18 in 10.0 mi West 6.9 mph 17.3 mph N/A   Clear
1:16 PM 63.0 °F - 34.9 °F 35% 30.18 in 10.0 mi West 9.2 mph 17.3 mph N/A   Clear
1:35 PM 63.1 °F - 34.2 °F 34% 30.17 in 10.0 mi WNW 9.2 mph 19.6 mph N/A   Clear
1:55 PM 63.9 °F - 34.9 °F 34% 30.16 in 10.0 mi WSW 9.2 mph - N/A   Clear
2:15 PM 64.0 °F - 34.9 °F 34% 30.16 in 10.0 mi WNW 10.4 mph 18.4 mph N/A   Clear
2:16 PM 63.9 °F - 34.9 °F 34% 30.16 in 10.0 mi WNW 10.4 mph 18.4 mph N/A   Clear
2:35 PM 64.9 °F - 35.4 °F 33% 30.15 in 10.0 mi West 11.5 mph 18.4 mph N/A   Clear
2:36 PM 64.9 °F - 35.4 °F 33% 30.15 in 10.0 mi West 8.1 mph 18.4 mph N/A   Clear
2:55 PM 64.4 °F - 35.1 °F 34% 30.15 in 10.0 mi West 10.4 mph - N/A   Clear
3:15 PM 65.5 °F - 35.6 °F 33% 30.15 in 10.0 mi WNW 4.6 mph - N/A   Clear
3:35 PM 66.2 °F - 36.0 °F 33% 30.14 in 10.0 mi West 9.2 mph - N/A   Clear
3:36 PM 66.4 °F - 36.0 °F 33% 30.14 in 10.0 mi West 11.5 mph 17.3 mph N/A   Clear
3:55 PM 66.0 °F - 35.8 °F 33% 30.14 in 10.0 mi West 5.8 mph - N/A   Clear
3:56 PM 66.2 °F - 35.8 °F 32% 30.14 in 10.0 mi WSW 6.9 mph - N/A   Clear
4:15 PM 66.0 °F - 34.5 °F 31% 30.14 in 10.0 mi West 9.2 mph - N/A   Clear
4:35 PM 65.8 °F - 34.2 °F 31% 30.14 in 10.0 mi WSW 10.4 mph - N/A   Clear
4:55 PM 65.5 °F - 34.2 °F 31% 30.14 in 10.0 mi WSW 4.6 mph - N/A   Clear
4:56 PM 65.5 °F - 34.3 °F 31% 30.14 in 10.0 mi WSW 4.6 mph - N/A   Clear
5:15 PM 65.5 °F - 34.7 °F 32% 30.14 in 10.0 mi WSW 5.8 mph - N/A   Clear
5:16 PM 65.5 °F - 34.5 °F 32% 30.14 in 10.0 mi West 4.6 mph - N/A   Clear
5:35 PM 65.3 °F - 34.3 °F 32% 30.14 in 10.0 mi WSW 4.6 mph - N/A   Clear
5:55 PM 65.7 °F - 35.8 °F 33% 30.14 in 10.0 mi Calm Calm - N/A   Clear
6:15 PM 64.6 °F - 35.4 °F 34% 30.14 in 10.0 mi Calm Calm - N/A   Clear
6:16 PM 64.6 °F - 35.4 °F 34% 30.14 in 10.0 mi Calm Calm - N/A   Clear
6:35 PM 63.7 °F - 35.8 °F 35% 30.13 in 10.0 mi Calm Calm - N/A   Clear
6:36 PM 63.7 °F - 35.6 °F 35% 30.13 in 10.0 mi Calm Calm - N/A   Clear
6:55 PM 62.2 °F - 34.5 °F 36% 30.13 in 10.0 mi Calm Calm - N/A   Clear
7:15 PM 60.8 °F - 37.9 °F 43% 30.13 in 10.0 mi SE 5.8 mph - N/A   Clear
7:35 PM 59.0 °F - 37.4 °F 45% 30.13 in 10.0 mi SE 5.8 mph - N/A   Clear
7:36 PM 59.2 °F - 37.2 °F 44% 30.13 in 10.0 mi SE 5.8 mph - N/A   Clear
7:55 PM 56.3 °F - 40.6 °F 56% 30.13 in 10.0 mi ESE 5.8 mph - N/A   Clear
7:56 PM 56.3 °F - 40.5 °F 55% 30.13 in 10.0 mi SE 5.8 mph - N/A   Clear
8:15 PM 55.4 °F - 40.5 °F 57% 30.13 in 10.0 mi SE 6.9 mph - N/A   Clear
8:35 PM 55.4 °F - 39.7 °F 56% 30.13 in 10.0 mi SE 5.8 mph - N/A   Clear
8:55 PM 53.8 °F - 40.3 °F 60% 30.14 in 10.0 mi SE 5.8 mph - N/A   Clear
8:56 PM 53.8 °F - 40.5 °F 61% 30.14 in 10.0 mi SE 6.9 mph - N/A   Clear
9:15 PM 53.1 °F - 39.6 °F 60% 30.14 in 10.0 mi SE 6.9 mph - N/A   Clear
9:16 PM 53.1 °F - 39.6 °F 60% 30.14 in 10.0 mi SE 6.9 mph - N/A   Clear
9:35 PM 52.9 °F - 39.0 °F 59% 30.14 in 10.0 mi SE 8.1 mph - N/A   Clear
9:55 PM 51.8 °F - 39.2 °F 62% 30.14 in 10.0 mi ESE 8.1 mph - N/A   Clear
10:16 PM 51.8 °F - 38.8 °F 61% 30.14 in 10.0 mi SE 8.1 mph - N/A   Clear
10:35 PM 50.9 °F - 39.0 °F 64% 30.14 in 10.0 mi SE 8.1 mph - N/A   Clear
10:36 PM 50.9 °F - 38.8 °F 63% 30.14 in 10.0 mi SE 8.1 mph - N/A   Clear
10:55 PM 51.1 °F - 38.5 °F 62% 30.13 in 10.0 mi SE 8.1 mph - N/A   Clear
11:15 PM 50.2 °F - 38.7 °F 65% 30.13 in 10.0 mi SE 8.1 mph - N/A   Clear
11:35 PM 50.2 °F - 38.3 °F 64% 30.13 in 10.0 mi SE 9.2 mph - N/A   Clear
11:36 PM 50.2 °F - 38.3 °F 64% 30.13 in 10.0 mi SE 9.2 mph - N/A   Clear
11:55 PM 50.0 °F - 38.3 °F 64% 30.12 in 10.0 mi SE 9.2 mph - N/A   Clear
11:56 PM 50.0 °F - 38.3 °F 64% 30.12 in 10.0 mi SE 9.2 mph - N/A   Clear